Home   Weather   Salisbury   Past weeks

Flag for United Kingdom Past Weather in Salisbury, England, United Kingdom — March 2018

Now
50 °F

Partly cloudy.


Feels Like: 45 °F
Forecast: 44 / 55 °F
Wind: 14 mph from East

Location: Boscombe Down

Current Time: Sep 22, 2018 at 9:53:34 pm

Latest Report: Sep 22, 2018 at 8:50 pm


Visibility: 4 mi

Pressure: 29.89 "Hg

Humidity: 100%

Dew Point: 50 °F

Location of SalisburyLocation

March 2018 Weather in Salisbury — Graph

°F

High & Low Weather Summary for March 2018

 TemperatureHumidityPressure
High54 °F (Mar 10, 12:50 pm)100% (Mar 1, 6:50 pm)30.51 "Hg (Mar 1, 6:50 pm)
Low23 °F (Mar 1, 12:50 am)38% (Mar 26, 1:50 pm)29.03 "Hg (Mar 5, 6:50 pm)
Average41 °F85%29.54 "Hg
* Reported Mar 1 12:50 am — Mar 31 11:50 pm, Salisbury. Weather by CustomWeather, © 2018

Note: Actual official high and low records may vary slightly from our data, if they occured in-between our weather recording intervals... More about our weather records

Advertising

Salisbury Weather History for March 1, 2018

Scroll right to see more
 ConditionsComfort  
Time TempWeatherWind HumidityBarometerVisibility
12:50 am
Thu, Mar 1
23 °FLight snow. Passing clouds.15 mph86%29.71 "Hg4 mi
1:50 am23 °FLight snow. Passing clouds.16 mph80%29.68 "Hg4 mi
2:50 am23 °FLight snow. Passing clouds.18 mph80%29.65 "Hg5 mi
3:50 am23 °FSleet. Partly cloudy.18 mph80%29.62 "Hg5 mi
4:50 am23 °FLight snow. Passing clouds.20 mph80%29.59 "Hg4 mi
5:50 am23 °FLight snow. Passing clouds.20 mph86%29.56 "Hg1 mi
6:50 am23 °FSnow. Partly cloudy.20 mph86%29.56 "Hg1 mi
7:50 am23 °FLight snow. Broken clouds.20 mph86%29.53 "Hg2 mi
8:50 am23 °FSleet. Broken clouds.20 mph86%29.53 "Hg1 mi
9:50 am23 °FLight snow. Overcast.22 mph86%29.50 "Hg1 mi
10:50 am25 °FLight snow. Partly sunny.22 mph86%29.47 "Hg2 mi
11:50 am25 °FLight snow. Overcast.18 mph86%29.45 "Hg4 mi
12:50 pm25 °FSnow. Low clouds.20 mph93%29.42 "Hg1 mi
1:50 pm27 °FSnow. Low clouds.20 mph86%29.39 "Hg1 mi
2:50 pm27 °FSnow. Low clouds.17 mph93%29.36 "Hg1 mi
3:50 pm27 °FSnow. Partly sunny.18 mph93%29.33 "Hg1 mi
4:50 pm27 °FSnow. Low clouds.20 mph93%29.30 "Hg1 mi
5:50 pm27 °FSnow. Passing clouds.20 mph93%29.30 "Hg1 mi
6:50 pm27 °FSnow. Low clouds.22 mph100%29.30 "Hg1 mi
7:50 pm27 °FSnow. Passing clouds.22 mph100%29.27 "Hg1 mi
8:50 pm28 °FSnow. Low clouds.22 mph93%29.27 "Hg1 mi
9:50 pm28 °FSnow. Partly cloudy.23 mph93%29.27 "Hg1 mi
10:50 pm28 °FSnow. Partly cloudy.24 mph93%29.24 "Hg1 mi
11:50 pm28 °FSnow flurries. Partly cloudy.25 mph93%29.24 "Hg2 mi
Weather by CustomWeather, © 2018

See weather overview